Weather History for Kendall, FL

Change the Weather History Date:

Thursday, November 10, 2011

  Actual Average Record
Temperature  
Mean Temperature 72 °F -  
Max Temperature 81 °F 80 °F 88 °F (2000)
Min Temperature 63 °F 63 °F 49 °F (1991)
Cooling Degree Days 7    
Growing Degree Days 22 (Base 50)    
Moisture  
Dew Point 61 °F    
Average Humidity 72    
Maximum Humidity 93    
Minimum Humidity 45    
Precipitation  
Precipitation 0.00 in - - ()
Sea Level Pressure  
Sea Level Pressure 29.92 in    
Wind  
Wind Speed 7 mph (NW)    
Max Wind Speed 13 mph    
Max Gust Speed -    
Visibility 10 miles    
Events      
Averages and records for this station are not official NWS values.
T = Trace of Precipitation, MM = Missing Value Source: NWS Daily Summary

Daily Weather History Graph

Daily Weather History Graph

Search for Another Location

Airport:

Trip Planner

Search our weather history database for the weather conditions in past years. The results will help you decide how hot, cold, wet, or windy it might be!

Date:

Astronomy

Nov. 10, 2011 Rise Set
Actual Time 6:35 AM EST 5:35 PM EST
Civil Twilight 6:11 AM EST 5:59 PM EST
Nautical Twilight 5:44 AM EST 6:26 PM EST
Astronomical Twilight 5:16 AM EST 6:54 PM EST
Moon 5:27 PM EST (11/10) 6:22 AM EST (11/10)
Length of Visible Light 11h 47m
Length of Day
10h 59m
Full, 100% of the Moon is Illuminated
Nov 10
Full
Nov 10
Full
Nov 18
Last Quarter
Nov 25
New
Dec 2
First Quarter

Hourly Weather History & Observations

Time (EST) Temp. Heat Index Dew Point Humidity Pressure Visibility Wind Dir Wind Speed Gust Speed Precip Events Conditions
12:53 AM 68.0 °F - 64.0 °F 87% 29.92 in 10.0 mi North 6.9 mph - N/A   Clear
1:53 AM 66.9 °F - 64.0 °F 90% 29.91 in 10.0 mi NNW 4.6 mph - N/A   Clear
2:53 AM 64.9 °F - 63.0 °F 93% 29.91 in 10.0 mi NW 3.5 mph - N/A   Mostly Cloudy
3:53 AM 66.2 °F - 62.6 °F 88% 29.90 in 10.0 mi NNW 5.8 mph - N/A   Clear
4:53 AM 64.9 °F - 63.0 °F 93% 29.90 in 10.0 mi NNW 5.8 mph - N/A   Clear
5:53 AM 66.0 °F - 64.0 °F 93% 29.91 in 10.0 mi NW 5.8 mph - N/A   Mostly Cloudy
6:53 AM - - - N/A% 29.94 in 10.0 mi NNW 4.6 mph - N/A   Clear
7:53 AM 69.8 °F - 64.4 °F 83% 29.94 in 10.0 mi NNW 6.9 mph - N/A   Clear
8:53 AM 73.9 °F - 62.1 °F 66% 29.95 in 10.0 mi NNW 9.2 mph - N/A   Clear
9:53 AM 77.0 °F - 59.0 °F 54% 29.95 in 10.0 mi NNW 12.7 mph - N/A   Clear
10:53 AM 79.0 °F - 59.0 °F 50% 29.93 in 10.0 mi NNW 12.7 mph - N/A   Clear
11:53 AM 80.1 °F 80.7 °F 59.0 °F 48% 29.91 in 10.0 mi North 11.5 mph - N/A   Clear
12:53 PM 80.1 °F 80.7 °F 59.0 °F 48% 29.88 in 10.0 mi NW 10.4 mph - N/A   Clear
1:53 PM 81.0 °F 81.1 °F 57.9 °F 45% 29.87 in 10.0 mi NNW 6.9 mph - N/A   Clear
2:53 PM 81.0 °F 81.1 °F 57.9 °F 45% 29.87 in 10.0 mi NW 9.2 mph - N/A   Clear
3:53 PM 80.1 °F 80.4 °F 57.0 °F 45% 29.87 in 10.0 mi NNW 9.2 mph - N/A   Clear
4:53 PM 79.0 °F - 57.9 °F 48% 29.87 in 10.0 mi North 5.8 mph - N/A   Clear
5:53 PM 71.1 °F - 61.0 °F 70% 29.89 in 10.0 mi West 6.9 mph - N/A   Clear
6:53 PM 69.1 °F - 62.1 °F 78% 29.91 in 10.0 mi West 6.9 mph - N/A   Clear
7:53 PM 68.0 °F - 62.1 °F 81% 29.92 in 10.0 mi West 6.9 mph - N/A   Clear
8:53 PM 64.9 °F - 61.0 °F 87% 29.94 in 10.0 mi West 6.9 mph - N/A   Clear
9:53 PM 66.0 °F - 60.1 °F 81% 29.96 in 10.0 mi WNW 6.9 mph - N/A   Clear
10:53 PM 63.0 °F - 60.1 °F 90% 29.97 in 10.0 mi NW 4.6 mph - N/A   Clear
11:53 PM 64.9 °F - 60.1 °F 84% 29.96 in 10.0 mi NNW 5.8 mph - N/A   Clear